Location: Central Coast
(33.3208°S, 151.2336°E)
Time: 05:44:00
(UTC+11:00)

Envisat - Visible Passes

Search period start: 21 January 2018 00:00
Search period end: 31 January 2018 00:00
Orbit: 764 x 766 km, 98.2° (Epoch: 20 January)

Date Brightness Start Highest point End Pass type
(mag) Time Alt. Az. Time Alt. Az. Time Alt. Az.
21 Jan 4.7 22:00:44 10° S 22:05:17 33° WSW 22:09:49 10° NW visible
22 Jan 3.1 21:23:36 10° S 21:28:45 79° WSW 21:33:50 10° NNW visible
23 Jan 3.4 20:47:08 10° SSE 20:52:01 43° E 20:56:50 10° N visible
23 Jan 5.6 22:27:09 10° SSW 22:30:38 19° WSW 22:34:06 10° WNW visible
24 Jan 4.2 21:49:24 10° S 21:54:14 42° WSW 21:59:00 10° NW visible
25 Jan 2.9 21:12:28 10° SSE 21:17:38 81° ENE 21:22:43 10° N visible
26 Jan 3.7 20:36:14 10° SSE 20:40:51 33° E 20:45:25 10° NNE visible
26 Jan 5.3 22:15:36 10° SSW 22:19:37 24° WSW 22:23:37 10° WNW visible
27 Jan 3.7 21:38:08 10° S 21:43:10 54° WSW 21:48:07 10° NNW visible
28 Jan 3.0 21:01:24 10° SSE 21:06:30 63° E 21:11:32 10° N visible
28 Jan 5.9 22:42:36 10° SW 22:44:55 13° WSW 22:47:12 10° W visible
29 Jan 4.0 20:25:25 10° SE 20:29:40 26° E 20:33:51 10° NNE visible
29 Jan 4.9 22:04:09 10° S 22:08:35 30° WSW 22:12:59 10° NW visible
30 Jan 3.3 21:26:56 10° S 21:32:04 71° WSW 21:37:08 10° NNW visible
